Location: Knobs
(40.8333°S, 175.2333°E)
Time: 03:08:08
(UTC+00:00)

SKYMED 2 - Pass Details

Date: 12 June 2024
Orbit: 621 x 623 km, 97.9° (Epoch: 22 July)

Event Time Altitude Azimuth Distance (km) Brightness Sun altitude
Rises 18:25:23 0° 168° (SSE) 2,944 7.0 -13.8°
Reaches altitude 10° 18:27:36 10° 168° (SSE) 2,029 6.1 -13.4°
Maximum altitude 18:32:02 90° 313° (NW) 639 3.6 -12.6°
Drops below altitude 10° 18:36:24 10° 346° (NNW) 2,002 6.3 -11.9°
Sets 18:38:35 0° 346° (NNW) 2,900 7.1 -11.5°
